Location: Melque
(41.0517°N, 4.4694°W)
Time: 12:28:52
(UTC+00:00)

SKYMED 2 - Pass Details

Date: 16 March 2026
Orbit: 622 x 624 km, 97.9° (Epoch: 14 April)

Event Time Altitude Azimuth Distance (km) Brightness Sun altitude
Rises 04:51:42 0° 144° (SE) 2,892 7.3 -18.9°
Reaches altitude 10° 04:54:01 10° 135° (SE) 1,990 6.5 -18.4°
Maximum altitude 04:57:56 34° 70° (ENE) 1,025 5.3 -17.7°
Drops below altitude 10° 05:01:52 10° 6° (N) 2,003 6.4 -17.0°
Sets 05:04:12 0° 357° (N) 2,913 7.1 -16.6°
